Year,Month,Day,Hour,Minute,Value (Times are PST for temperature in C)
2014,05,20,00,00,13.10
2014,05,20,00,01,13.10
2014,05,20,00,02,13.10
2014,05,20,00,03,13.10
2014,05,20,00,04,13.00
2014,05,20,00,05,13.00
2014,05,20,00,06,13.00
2014,05,20,00,07,13.00
2014,05,20,00,08,13.00
2014,05,20,00,09,13.00
2014,05,20,00,10,13.00
2014,05,20,00,11,13.00
2014,05,20,00,12,12.90
2014,05,20,00,13,12.90
2014,05,20,00,14,12.90
2014,05,20,00,15,12.90
2014,05,20,00,16,12.90
2014,05,20,00,17,12.90
2014,05,20,00,18,12.90
2014,05,20,00,19,12.90
2014,05,20,00,20,12.90
2014,05,20,00,21,12.90
2014,05,20,00,22,12.90
2014,05,20,00,23,12.90
2014,05,20,00,24,12.90
2014,05,20,00,25,12.90
2014,05,20,00,26,12.90
2014,05,20,00,27,12.90
2014,05,20,00,28,12.90
2014,05,20,00,29,12.90
2014,05,20,00,30,13.00
2014,05,20,00,31,13.00
2014,05,20,00,32,13.00
2014,05,20,00,33,13.00
2014,05,20,00,34,13.10
2014,05,20,00,35,13.10
2014,05,20,00,36,13.10
2014,05,20,00,37,13.10
2014,05,20,00,38,13.10
2014,05,20,00,39,13.10
2014,05,20,00,40,13.10
2014,05,20,00,41,13.20
2014,05,20,00,42,13.20
2014,05,20,00,43,13.20
2014,05,20,00,44,13.20
2014,05,20,00,45,13.20
2014,05,20,00,46,13.20
2014,05,20,00,47,13.20
2014,05,20,00,48,13.20
2014,05,20,00,49,13.20
2014,05,20,00,50,13.20
2014,05,20,00,51,13.20
2014,05,20,00,52,13.20
2014,05,20,00,53,13.20
2014,05,20,00,54,13.20
2014,05,20,00,55,13.20
2014,05,20,00,56,13.20
2014,05,20,00,57,13.20
2014,05,20,00,58,13.20
2014,05,20,00,59,13.20
2014,05,20,01,00,13.20
2014,05,20,01,01,13.20
2014,05,20,01,02,13.30
2014,05,20,01,03,13.30
2014,05,20,01,04,13.30
2014,05,20,01,05,13.30
2014,05,20,01,06,13.30
2014,05,20,01,07,13.30
2014,05,20,01,08,13.30
2014,05,20,01,09,13.30
2014,05,20,01,10,13.30
2014,05,20,01,11,13.30
2014,05,20,01,12,13.30
2014,05,20,01,13,13.30
2014,05,20,01,14,13.30
2014,05,20,01,15,13.30
2014,05,20,01,16,13.30
2014,05,20,01,17,13.30
2014,05,20,01,18,13.30
2014,05,20,01,19,13.40
2014,05,20,01,20,13.40
2014,05,20,01,21,13.40
2014,05,20,01,22,13.40
2014,05,20,01,23,13.40
2014,05,20,01,24,13.40
2014,05,20,01,25,13.40
2014,05,20,01,26,13.40
2014,05,20,01,27,13.40
2014,05,20,01,28,13.50
2014,05,20,01,29,13.40
2014,05,20,01,30,13.40
2014,05,20,01,31,13.40
2014,05,20,01,32,13.40
2014,05,20,01,33,13.40
2014,05,20,01,34,13.40
2014,05,20,01,35,13.40
2014,05,20,01,36,13.40
2014,05,20,01,37,13.40
2014,05,20,01,38,13.40
2014,05,20,01,39,13.40
2014,05,20,01,40,13.40
2014,05,20,01,41,13.40
2014,05,20,01,42,13.40
2014,05,20,01,43,13.30
2014,05,20,01,44,13.30
2014,05,20,01,45,13.30
2014,05,20,01,46,13.30
2014,05,20,01,47,13.30
2014,05,20,01,48,13.30
2014,05,20,01,49,13.30
2014,05,20,01,50,13.30
2014,05,20,01,51,13.30
2014,05,20,01,52,13.30
2014,05,20,01,53,13.30
2014,05,20,01,54,13.20
2014,05,20,01,55,13.20
2014,05,20,01,56,13.20
2014,05,20,01,57,13.20
2014,05,20,01,58,13.10
2014,05,20,01,59,13.10
2014,05,20,02,00,13.10
2014,05,20,02,01,13.10
2014,05,20,02,02,13.00
2014,05,20,02,03,13.00
2014,05,20,02,04,12.90
2014,05,20,02,05,12.90
2014,05,20,02,06,12.90
2014,05,20,02,07,12.80
2014,05,20,02,08,12.80
2014,05,20,02,09,12.80
2014,05,20,02,10,12.70
2014,05,20,02,11,12.70
2014,05,20,02,12,12.70
2014,05,20,02,13,12.70
2014,05,20,02,14,12.60
2014,05,20,02,15,12.60
2014,05,20,02,16,12.60
2014,05,20,02,17,12.50
2014,05,20,02,18,12.50
2014,05,20,02,19,12.50
2014,05,20,02,20,12.40
2014,05,20,02,21,12.40
2014,05,20,02,22,12.40
2014,05,20,02,23,12.30
2014,05,20,02,24,12.30
2014,05,20,02,25,12.30
2014,05,20,02,26,12.30
2014,05,20,02,27,12.20
2014,05,20,02,28,12.20
2014,05,20,02,29,12.20
2014,05,20,02,30,12.20
2014,05,20,02,31,12.20
2014,05,20,02,32,12.20
2014,05,20,02,33,12.20
2014,05,20,02,34,12.10
2014,05,20,02,35,12.10
2014,05,20,02,36,12.10
2014,05,20,02,37,12.10
2014,05,20,02,38,12.10
2014,05,20,02,39,12.10
2014,05,20,02,40,12.10
2014,05,20,02,41,12.10
2014,05,20,02,42,12.10
2014,05,20,02,43,12.10
2014,05,20,02,44,12.10
2014,05,20,02,45,12.10
2014,05,20,02,46,12.10
2014,05,20,02,47,12.10
2014,05,20,02,48,12.00
2014,05,20,02,49,12.00
2014,05,20,02,50,12.00
2014,05,20,02,51,12.00
2014,05,20,02,52,12.00
2014,05,20,02,53,12.00
2014,05,20,02,54,12.00
2014,05,20,02,55,12.00
2014,05,20,02,56,12.00
2014,05,20,02,57,11.90
2014,05,20,02,58,11.90
2014,05,20,02,59,11.90
2014,05,20,03,00,11.90
2014,05,20,03,01,11.90
2014,05,20,03,02,11.90
2014,05,20,03,03,11.80
2014,05,20,03,04,11.80
2014,05,20,03,05,11.80
2014,05,20,03,06,11.70
2014,05,20,03,07,11.70
2014,05,20,03,08,11.70
2014,05,20,03,09,11.60
2014,05,20,03,10,11.60
2014,05,20,03,11,11.50
2014,05,20,03,12,11.40
2014,05,20,03,13,11.40
2014,05,20,03,14,11.30
2014,05,20,03,15,11.30
2014,05,20,03,16,11.20
2014,05,20,03,17,11.20
2014,05,20,03,18,11.10
2014,05,20,03,19,11.10
2014,05,20,03,20,11.00
2014,05,20,03,21,11.00
2014,05,20,03,22,11.00
2014,05,20,03,23,10.90
2014,05,20,03,24,10.90
2014,05,20,03,25,10.90
2014,05,20,03,26,10.90
2014,05,20,03,27,10.90
2014,05,20,03,28,10.90
2014,05,20,03,29,10.90
2014,05,20,03,30,10.90
2014,05,20,03,31,10.90
2014,05,20,03,32,10.80
2014,05,20,03,33,10.80
2014,05,20,03,34,10.80
2014,05,20,03,35,10.80
2014,05,20,03,36,10.80
2014,05,20,03,37,10.80
2014,05,20,03,38,10.80
2014,05,20,03,39,10.80
2014,05,20,03,40,10.70
2014,05,20,03,41,10.70
2014,05,20,03,42,10.70
2014,05,20,03,43,10.70
2014,05,20,03,44,10.70
2014,05,20,03,45,10.70
2014,05,20,03,46,10.70
2014,05,20,03,47,10.70
2014,05,20,03,48,10.70
2014,05,20,03,49,10.70
2014,05,20,03,50,10.70
2014,05,20,03,51,10.60
2014,05,20,03,52,10.60
2014,05,20,03,53,10.60
2014,05,20,03,54,10.60
2014,05,20,03,55,10.60
2014,05,20,03,56,10.60
2014,05,20,03,57,10.60
2014,05,20,03,58,10.60
2014,05,20,03,59,10.60
2014,05,20,04,00,10.60
2014,05,20,04,01,10.60
2014,05,20,04,02,10.50
2014,05,20,04,03,10.50
2014,05,20,04,04,10.50
2014,05,20,04,05,10.50
2014,05,20,04,06,10.40
2014,05,20,04,07,10.40
2014,05,20,04,08,10.40
2014,05,20,04,09,10.40
2014,05,20,04,10,10.40
2014,05,20,04,11,10.40
2014,05,20,04,12,10.50
2014,05,20,04,13,10.50
2014,05,20,04,14,10.50
2014,05,20,04,15,10.40
2014,05,20,04,16,10.40
2014,05,20,04,17,10.40
2014,05,20,04,18,10.40
2014,05,20,04,19,10.40
2014,05,20,04,20,10.40
2014,05,20,04,21,10.30
2014,05,20,04,22,10.30
2014,05,20,04,23,10.30
2014,05,20,04,24,10.30
2014,05,20,04,25,10.30
2014,05,20,04,26,10.30
2014,05,20,04,27,10.30
2014,05,20,04,28,10.30
2014,05,20,04,29,10.30
2014,05,20,04,30,10.30
2014,05,20,04,31,10.30
2014,05,20,04,32,10.30
2014,05,20,04,33,10.30
2014,05,20,04,34,10.30
2014,05,20,04,35,10.30
2014,05,20,04,36,10.30
2014,05,20,04,37,10.30
2014,05,20,04,38,10.30
2014,05,20,04,39,10.30
2014,05,20,04,40,10.30
2014,05,20,04,41,10.30
2014,05,20,04,42,10.30
2014,05,20,04,43,10.30
2014,05,20,04,44,10.30
2014,05,20,04,45,10.30
2014,05,20,04,46,10.20
2014,05,20,04,47,10.20
2014,05,20,04,48,10.20
2014,05,20,04,49,10.20
2014,05,20,04,50,10.20
2014,05,20,04,51,10.20
2014,05,20,04,52,10.20
2014,05,20,04,53,10.20
2014,05,20,04,54,10.20
2014,05,20,04,55,10.20
2014,05,20,04,56,10.20
2014,05,20,04,57,10.20
2014,05,20,04,58,10.20
2014,05,20,04,59,10.20
2014,05,20,05,00,10.10
2014,05,20,05,01,10.10
2014,05,20,05,02,10.10
2014,05,20,05,03,10.20
2014,05,20,05,04,10.20
2014,05,20,05,05,10.20
2014,05,20,05,06,10.20
2014,05,20,05,07,10.20
2014,05,20,05,08,10.20
2014,05,20,05,09,10.20
2014,05,20,05,10,10.20
2014,05,20,05,11,10.20
2014,05,20,05,12,10.20
2014,05,20,05,13,10.20
2014,05,20,05,14,10.20
2014,05,20,05,15,10.20
2014,05,20,05,16,10.20
2014,05,20,05,17,10.20
2014,05,20,05,18,10.20
2014,05,20,05,19,10.20
2014,05,20,05,20,10.20
2014,05,20,05,21,10.20
2014,05,20,05,22,10.20
2014,05,20,05,23,10.10
2014,05,20,05,24,10.10
2014,05,20,05,25,10.10
2014,05,20,05,26,10.10
2014,05,20,05,27,10.10
2014,05,20,05,28,10.10
2014,05,20,05,29,10.10
2014,05,20,05,30,10.10
2014,05,20,05,31,10.10
2014,05,20,05,32,10.10
2014,05,20,05,33,10.10
2014,05,20,05,34,10.10
2014,05,20,05,35,10.10
2014,05,20,05,36,10.10
2014,05,20,05,37,10.10
2014,05,20,05,38,10.00
2014,05,20,05,39,10.00
2014,05,20,05,40,10.00
2014,05,20,05,41,10.00
2014,05,20,05,42,9.90
2014,05,20,05,43,9.90
2014,05,20,05,44,9.90
2014,05,20,05,45,9.90
2014,05,20,05,46,9.90
2014,05,20,05,47,9.90
2014,05,20,05,48,9.90
2014,05,20,05,49,9.90
2014,05,20,05,50,9.80
2014,05,20,05,51,9.80
2014,05,20,05,52,9.80
2014,05,20,05,53,9.80
2014,05,20,05,54,9.80
2014,05,20,05,55,9.80
2014,05,20,05,56,9.80
2014,05,20,05,57,9.80
2014,05,20,05,58,9.80
2014,05,20,05,59,9.70
2014,05,20,06,00,9.70
2014,05,20,06,01,9.70
2014,05,20,06,02,9.70
2014,05,20,06,03,9.70
2014,05,20,06,04,9.60
2014,05,20,06,05,9.60
2014,05,20,06,06,9.60
2014,05,20,06,07,9.60
2014,05,20,06,08,9.60
2014,05,20,06,09,9.60
2014,05,20,06,10,9.60
2014,05,20,06,11,9.60
2014,05,20,06,12,9.60
2014,05,20,06,13,9.60
2014,05,20,06,14,9.60
2014,05,20,06,15,9.60
2014,05,20,06,16,9.60
2014,05,20,06,17,9.60
2014,05,20,06,18,9.60
2014,05,20,06,19,9.60
2014,05,20,06,20,9.70
2014,05,20,06,21,9.70
2014,05,20,06,22,9.70
2014,05,20,06,23,9.70
2014,05,20,06,24,9.80
2014,05,20,06,25,9.80
2014,05,20,06,26,9.80
2014,05,20,06,27,9.80
2014,05,20,06,28,9.90
2014,05,20,06,29,9.90
2014,05,20,06,30,9.90
2014,05,20,06,31,10.00
2014,05,20,06,32,10.00
2014,05,20,06,33,10.10
2014,05,20,06,34,10.10
2014,05,20,06,35,10.20
2014,05,20,06,36,10.20
2014,05,20,06,37,10.20
2014,05,20,06,38,10.30
2014,05,20,06,39,10.30
2014,05,20,06,40,10.30
2014,05,20,06,41,10.40
2014,05,20,06,42,10.50
2014,05,20,06,43,10.50
2014,05,20,06,44,10.60
2014,05,20,06,45,10.60
2014,05,20,06,46,10.70
2014,05,20,06,47,10.70
2014,05,20,06,48,10.80
2014,05,20,06,49,10.90
2014,05,20,06,50,10.90
2014,05,20,06,51,11.00
2014,05,20,06,52,11.10
2014,05,20,06,53,11.20
2014,05,20,06,54,11.30
2014,05,20,06,55,11.30
2014,05,20,06,56,11.30
2014,05,20,06,57,11.40
2014,05,20,06,58,11.40
2014,05,20,06,59,11.50
2014,05,20,07,00,11.50
2014,05,20,07,01,11.60
2014,05,20,07,02,11.60
2014,05,20,07,03,11.70
2014,05,20,07,04,11.80
2014,05,20,07,05,11.90
2014,05,20,07,06,12.00
2014,05,20,07,07,12.10
2014,05,20,07,08,12.20
2014,05,20,07,09,12.20
2014,05,20,07,10,12.30
2014,05,20,07,11,12.40
2014,05,20,07,12,12.50
2014,05,20,07,13,12.60
2014,05,20,07,14,12.70
2014,05,20,07,15,12.80
2014,05,20,07,16,12.90
2014,05,20,07,17,13.00
2014,05,20,07,18,13.10
2014,05,20,07,19,13.10
2014,05,20,07,20,13.10
2014,05,20,07,21,13.10
2014,05,20,07,22,13.10
2014,05,20,07,23,13.10
2014,05,20,07,24,13.10
2014,05,20,07,25,13.10
2014,05,20,07,26,13.20
2014,05,20,07,27,13.20
2014,05,20,07,28,13.30
2014,05,20,07,29,13.40
2014,05,20,07,30,13.40
2014,05,20,07,31,13.50
2014,05,20,07,32,13.50
2014,05,20,07,33,13.50
2014,05,20,07,34,13.50
2014,05,20,07,35,13.50
2014,05,20,07,36,13.60
2014,05,20,07,37,13.60
2014,05,20,07,38,13.60
2014,05,20,07,39,13.70
2014,05,20,07,40,13.70
2014,05,20,07,41,13.80
2014,05,20,07,42,13.80
2014,05,20,07,43,13.80
2014,05,20,07,44,13.80
2014,05,20,07,45,13.80
2014,05,20,07,46,13.80
2014,05,20,07,47,13.80
2014,05,20,07,48,13.80
2014,05,20,07,49,13.80
2014,05,20,07,50,13.80
2014,05,20,07,51,13.80
2014,05,20,07,52,13.80
2014,05,20,07,53,13.80
2014,05,20,07,54,13.90
2014,05,20,07,55,13.90
2014,05,20,07,56,13.90
2014,05,20,07,57,14.00
2014,05,20,07,58,14.10
2014,05,20,07,59,14.10
2014,05,20,08,00,14.20
2014,05,20,08,01,14.30
2014,05,20,08,02,14.40
2014,05,20,08,03,14.50
2014,05,20,08,04,14.50
2014,05,20,08,05,14.50
2014,05,20,08,06,14.60
2014,05,20,08,07,14.60
2014,05,20,08,08,14.70
2014,05,20,08,09,14.70
2014,05,20,08,10,14.70
2014,05,20,08,11,14.70
2014,05,20,08,12,14.70
2014,05,20,08,13,14.70
2014,05,20,08,14,14.70
2014,05,20,08,15,14.80
2014,05,20,08,16,14.80
2014,05,20,08,17,14.80
2014,05,20,08,18,14.90
2014,05,20,08,19,15.00
2014,05,20,08,20,15.00
2014,05,20,08,21,15.10
2014,05,20,08,22,15.20
2014,05,20,08,23,15.20
2014,05,20,08,24,15.20
2014,05,20,08,25,15.20
2014,05,20,08,26,15.30
2014,05,20,08,27,15.40
2014,05,20,08,28,15.50
2014,05,20,08,29,15.60
2014,05,20,08,30,15.70
2014,05,20,08,31,15.80
2014,05,20,08,32,15.90
2014,05,20,08,33,15.90
2014,05,20,08,34,16.00
2014,05,20,08,35,16.00
2014,05,20,08,36,16.10
2014,05,20,08,37,16.10
2014,05,20,08,38,16.20
2014,05,20,08,39,16.20
2014,05,20,08,40,16.20
2014,05,20,08,41,16.20
2014,05,20,08,42,16.20
2014,05,20,08,43,16.20
2014,05,20,08,44,16.20
2014,05,20,08,45,16.20
2014,05,20,08,46,16.10
2014,05,20,08,47,15.90
2014,05,20,08,48,15.80
2014,05,20,08,49,15.70
2014,05,20,08,50,15.70
2014,05,20,08,51,15.70
2014,05,20,08,52,15.70
2014,05,20,08,53,15.70
2014,05,20,08,54,15.70
2014,05,20,08,55,15.70
2014,05,20,08,56,15.70
2014,05,20,08,57,15.80
2014,05,20,08,58,15.80
2014,05,20,08,59,15.80
2014,05,20,09,00,15.90
2014,05,20,09,01,16.00
2014,05,20,09,02,16.10
2014,05,20,09,03,16.10
2014,05,20,09,04,16.10
2014,05,20,09,05,16.20
2014,05,20,09,06,16.20
2014,05,20,09,07,16.20
2014,05,20,09,08,16.20
2014,05,20,09,09,16.30
2014,05,20,09,10,16.30
2014,05,20,09,11,16.30
2014,05,20,09,12,16.20
2014,05,20,09,13,16.10
2014,05,20,09,14,16.00
2014,05,20,09,15,16.00
2014,05,20,09,16,15.90
2014,05,20,09,17,15.90
2014,05,20,09,18,15.90
2014,05,20,09,19,16.00
2014,05,20,09,20,16.00
2014,05,20,09,21,16.10
2014,05,20,09,22,16.10
2014,05,20,09,23,16.10
2014,05,20,09,24,16.20
2014,05,20,09,25,16.20
2014,05,20,09,26,16.20
2014,05,20,09,27,16.20
2014,05,20,09,28,16.20
2014,05,20,09,29,16.10
2014,05,20,09,30,16.10
2014,05,20,09,31,16.10
2014,05,20,09,32,16.10
2014,05,20,09,33,16.10
2014,05,20,09,34,16.10
2014,05,20,09,35,16.20
2014,05,20,09,36,16.20
2014,05,20,09,37,16.20
2014,05,20,09,38,16.20
2014,05,20,09,39,16.20
2014,05,20,09,40,16.20
2014,05,20,09,41,16.20
2014,05,20,09,42,16.20
2014,05,20,09,43,16.30
2014,05,20,09,44,16.40
2014,05,20,09,45,16.50
2014,05,20,09,46,16.60
2014,05,20,09,47,16.80
2014,05,20,09,48,16.90
2014,05,20,09,49,16.90
2014,05,20,09,50,16.90
2014,05,20,09,51,16.90
2014,05,20,09,52,16.80
2014,05,20,09,53,16.60
2014,05,20,09,54,16.40
2014,05,20,09,55,16.30
2014,05,20,09,56,16.10
2014,05,20,09,57,16.10
2014,05,20,09,58,16.10
2014,05,20,09,59,16.10
2014,05,20,10,00,16.10
2014,05,20,10,01,16.10
2014,05,20,10,02,16.00
2014,05,20,10,03,16.00
2014,05,20,10,04,15.90
2014,05,20,10,05,15.90
2014,05,20,10,06,15.90
2014,05,20,10,07,15.90
2014,05,20,10,08,15.90
2014,05,20,10,09,15.80
2014,05,20,10,10,15.80
2014,05,20,10,11,15.80
2014,05,20,10,12,15.80
2014,05,20,10,13,15.90
2014,05,20,10,14,16.00
2014,05,20,10,15,16.00
2014,05,20,10,16,16.10
2014,05,20,10,17,16.20
2014,05,20,10,18,16.20
2014,05,20,10,19,16.20
2014,05,20,10,20,16.30
2014,05,20,10,21,16.30
2014,05,20,10,22,16.30
2014,05,20,10,23,16.40
2014,05,20,10,24,16.40
2014,05,20,10,25,16.40
2014,05,20,10,26,16.40
2014,05,20,10,27,16.50
2014,05,20,10,28,16.50
2014,05,20,10,29,16.40
2014,05,20,10,30,16.30
2014,05,20,10,31,16.30
2014,05,20,10,32,16.30
2014,05,20,10,33,16.40
2014,05,20,10,34,16.40
2014,05,20,10,35,16.40
2014,05,20,10,36,16.50
2014,05,20,10,37,16.60
2014,05,20,10,38,16.70
2014,05,20,10,39,16.70
2014,05,20,10,40,16.80
2014,05,20,10,41,16.80
2014,05,20,10,42,16.80
2014,05,20,10,43,16.80
2014,05,20,10,44,16.70
2014,05,20,10,45,16.70
2014,05,20,10,46,16.70
2014,05,20,10,47,16.70
2014,05,20,10,48,16.60
2014,05,20,10,49,16.60
2014,05,20,10,50,16.60
2014,05,20,10,51,16.60
2014,05,20,10,52,16.60
2014,05,20,10,53,16.60
2014,05,20,10,54,16.60
2014,05,20,10,55,16.70
2014,05,20,10,56,16.70
2014,05,20,10,57,16.70
2014,05,20,10,58,16.70
2014,05,20,10,59,16.60
2014,05,20,11,00,16.50
2014,05,20,11,01,16.50
2014,05,20,11,02,16.50
2014,05,20,11,03,16.50
2014,05,20,11,04,16.60
2014,05,20,11,05,16.60
2014,05,20,11,06,16.60
2014,05,20,11,07,16.60
2014,05,20,11,08,16.60
2014,05,20,11,09,16.60
2014,05,20,11,10,16.60
2014,05,20,11,11,16.50
2014,05,20,11,12,16.50
2014,05,20,11,13,16.40
2014,05,20,11,14,16.50
2014,05,20,11,15,16.50
2014,05,20,11,16,16.70
2014,05,20,11,17,16.80
2014,05,20,11,18,16.80
2014,05,20,11,19,16.80
2014,05,20,11,20,16.80
2014,05,20,11,21,16.70
2014,05,20,11,22,16.70
2014,05,20,11,23,16.80
2014,05,20,11,24,16.80
2014,05,20,11,25,16.90
2014,05,20,11,26,16.90
2014,05,20,11,27,17.00
2014,05,20,11,28,17.00
2014,05,20,11,29,16.90
2014,05,20,11,30,16.90
2014,05,20,11,31,16.80
2014,05,20,11,32,16.80
2014,05,20,11,33,16.70
2014,05,20,11,34,16.80
2014,05,20,11,35,16.80
2014,05,20,11,36,16.80
2014,05,20,11,37,16.80
2014,05,20,11,38,16.80
2014,05,20,11,39,16.80
2014,05,20,11,40,16.90
2014,05,20,11,41,17.00
2014,05,20,11,42,17.00
2014,05,20,11,43,17.10
2014,05,20,11,44,17.10
2014,05,20,11,45,17.00
2014,05,20,11,46,17.00
2014,05,20,11,47,17.00
2014,05,20,11,48,17.00
2014,05,20,11,49,17.00
2014,05,20,11,50,17.00
2014,05,20,11,51,17.00
2014,05,20,11,52,17.00
2014,05,20,11,53,17.00
2014,05,20,11,54,17.00
2014,05,20,11,55,16.90
2014,05,20,11,56,17.00
2014,05,20,11,57,17.10
2014,05,20,11,58,17.10
2014,05,20,11,59,17.10
2014,05,20,12,00,17.10
2014,05,20,12,01,17.10
2014,05,20,12,02,17.10
2014,05,20,12,03,17.00
2014,05,20,12,04,17.10
2014,05,20,12,05,17.10
2014,05,20,12,06,17.20
2014,05,20,12,07,17.20
2014,05,20,12,08,17.20
2014,05,20,12,09,17.20
2014,05,20,12,10,17.20
2014,05,20,12,11,17.20
2014,05,20,12,12,17.30
2014,05,20,12,13,17.30
2014,05,20,12,14,17.40
2014,05,20,12,15,17.50
2014,05,20,12,16,17.50
2014,05,20,12,17,17.50
2014,05,20,12,18,17.60
2014,05,20,12,19,17.60
2014,05,20,12,20,17.60
2014,05,20,12,21,17.60
2014,05,20,12,22,17.70
2014,05,20,12,23,17.70
2014,05,20,12,24,17.70
2014,05,20,12,25,17.70
2014,05,20,12,26,17.60
2014,05,20,12,27,17.60
2014,05,20,12,28,17.60
2014,05,20,12,29,17.60
2014,05,20,12,30,17.70
2014,05,20,12,31,17.70
2014,05,20,12,32,17.60
2014,05,20,12,33,17.60
2014,05,20,12,34,17.60
2014,05,20,12,35,17.70
2014,05,20,12,36,17.70
2014,05,20,12,37,17.70
2014,05,20,12,38,17.80
2014,05,20,12,39,17.90
2014,05,20,12,40,17.90
2014,05,20,12,41,18.00
2014,05,20,12,42,18.00
2014,05,20,12,43,18.00
2014,05,20,12,44,18.10
2014,05,20,12,45,18.10
2014,05,20,12,46,18.10
2014,05,20,12,47,18.00
2014,05,20,12,48,18.00
2014,05,20,12,49,18.00
2014,05,20,12,50,18.00
2014,05,20,12,51,18.00
2014,05,20,12,52,18.00
2014,05,20,12,53,18.00
2014,05,20,12,54,18.00
2014,05,20,12,55,18.00
2014,05,20,12,56,18.10
2014,05,20,12,57,18.10
2014,05,20,12,58,18.20
2014,05,20,12,59,18.30
2014,05,20,13,00,18.30
2014,05,20,13,01,18.40
2014,05,20,13,02,18.40
2014,05,20,13,03,18.30
2014,05,20,13,04,18.30
2014,05,20,13,05,18.30
2014,05,20,13,06,18.30
2014,05,20,13,07,18.40
2014,05,20,13,08,18.40
2014,05,20,13,09,18.40
2014,05,20,13,10,18.50
2014,05,20,13,11,18.50
2014,05,20,13,12,18.50
2014,05,20,13,13,18.50
2014,05,20,13,14,18.60
2014,05,20,13,15,18.70
2014,05,20,13,16,18.70
2014,05,20,13,17,18.70
2014,05,20,13,18,18.70
2014,05,20,13,19,18.80
2014,05,20,13,20,18.90
2014,05,20,13,21,19.00
2014,05,20,13,22,19.10
2014,05,20,13,23,19.00
2014,05,20,13,24,18.90
2014,05,20,13,25,18.80
2014,05,20,13,26,18.60
2014,05,20,13,27,18.50
2014,05,20,13,28,18.40
2014,05,20,13,29,18.30
2014,05,20,13,30,18.40
2014,05,20,13,31,18.40
2014,05,20,13,32,18.40
2014,05,20,13,33,18.50
2014,05,20,13,34,18.60
2014,05,20,13,35,18.60
2014,05,20,13,36,18.60
2014,05,20,13,37,18.60
2014,05,20,13,38,18.60
2014,05,20,13,39,18.50
2014,05,20,13,40,18.40
2014,05,20,13,41,18.40
2014,05,20,13,42,18.40
2014,05,20,13,43,18.40
2014,05,20,13,44,18.40
2014,05,20,13,45,18.50
2014,05,20,13,46,18.60
2014,05,20,13,47,18.70
2014,05,20,13,48,18.70
2014,05,20,13,49,18.60
2014,05,20,13,50,18.50
2014,05,20,13,51,18.40
2014,05,20,13,52,18.40
2014,05,20,13,53,18.50
2014,05,20,13,54,18.50
2014,05,20,13,55,18.60
2014,05,20,13,56,18.70
2014,05,20,13,57,18.70
2014,05,20,13,58,18.80
2014,05,20,13,59,18.80
2014,05,20,14,00,18.80
2014,05,20,14,01,18.80
2014,05,20,14,02,18.90
2014,05,20,14,03,18.90
2014,05,20,14,04,18.90
2014,05,20,14,05,18.90
2014,05,20,14,06,18.80
2014,05,20,14,07,18.80
2014,05,20,14,08,18.80
2014,05,20,14,09,18.90
2014,05,20,14,10,18.90
2014,05,20,14,11,19.00
2014,05,20,14,12,19.10
2014,05,20,14,13,19.10
2014,05,20,14,14,19.10
2014,05,20,14,15,19.00
2014,05,20,14,16,19.00
2014,05,20,14,17,18.90
2014,05,20,14,18,18.90
2014,05,20,14,19,18.90
2014,05,20,14,20,18.90
2014,05,20,14,21,18.80
2014,05,20,14,22,18.80
2014,05,20,14,23,18.80
2014,05,20,14,24,18.70
2014,05,20,14,25,18.70
2014,05,20,14,26,18.80
2014,05,20,14,27,18.80
2014,05,20,14,28,18.90
2014,05,20,14,29,18.90
2014,05,20,14,30,19.00
2014,05,20,14,31,19.00
2014,05,20,14,32,19.00
2014,05,20,14,33,19.00
2014,05,20,14,34,18.90
2014,05,20,14,35,18.90
2014,05,20,14,36,19.00
2014,05,20,14,37,19.00
2014,05,20,14,38,19.10
2014,05,20,14,39,19.20
2014,05,20,14,40,19.30
2014,05,20,14,41,19.30
2014,05,20,14,42,19.30
2014,05,20,14,43,19.30
2014,05,20,14,44,19.30
2014,05,20,14,45,19.30
2014,05,20,14,46,19.40
2014,05,20,14,47,19.40
2014,05,20,14,48,19.40
2014,05,20,14,49,19.50
2014,05,20,14,50,19.50
2014,05,20,14,51,19.60
2014,05,20,14,52,19.70
2014,05,20,14,53,19.70
2014,05,20,14,54,19.70
2014,05,20,14,55,19.70
2014,05,20,14,56,19.70
2014,05,20,14,57,19.70
2014,05,20,14,58,19.60
2014,05,20,14,59,19.60
2014,05,20,15,00,19.50
2014,05,20,15,01,19.50
2014,05,20,15,02,19.50
2014,05,20,15,03,19.50
2014,05,20,15,04,19.50
2014,05,20,15,05,19.60
2014,05,20,15,06,19.70
2014,05,20,15,07,19.80
2014,05,20,15,08,19.90
2014,05,20,15,09,19.90
2014,05,20,15,10,19.90
2014,05,20,15,11,19.90
2014,05,20,15,12,19.90
2014,05,20,15,13,19.80
2014,05,20,15,14,19.80
2014,05,20,15,15,19.80
2014,05,20,15,16,19.90
2014,05,20,15,17,19.90
2014,05,20,15,18,20.00
2014,05,20,15,19,20.00
2014,05,20,15,20,20.00
2014,05,20,15,21,20.00
2014,05,20,15,22,20.10
2014,05,20,15,23,20.10
2014,05,20,15,24,20.10
2014,05,20,15,25,20.00
2014,05,20,15,26,20.00
2014,05,20,15,27,19.90
2014,05,20,15,28,19.80
2014,05,20,15,29,19.70
2014,05,20,15,30,19.60
2014,05,20,15,31,19.60
2014,05,20,15,32,19.50
2014,05,20,15,33,19.60
2014,05,20,15,34,19.60
2014,05,20,15,35,19.60
2014,05,20,15,36,19.50
2014,05,20,15,37,19.50
2014,05,20,15,38,19.40
2014,05,20,15,39,19.40
2014,05,20,15,40,19.50
2014,05,20,15,41,19.50
2014,05,20,15,42,19.70
2014,05,20,15,43,19.80
2014,05,20,15,44,20.00
2014,05,20,15,45,20.10
2014,05,20,15,46,20.10
2014,05,20,15,47,20.20
2014,05,20,15,48,20.20
2014,05,20,15,49,20.10
2014,05,20,15,50,20.00
2014,05,20,15,51,20.00
2014,05,20,15,52,20.00
2014,05,20,15,53,19.90
2014,05,20,15,54,19.90
2014,05,20,15,55,19.80
2014,05,20,15,56,19.80
2014,05,20,15,57,19.70
2014,05,20,15,58,19.70
2014,05,20,15,59,19.60
2014,05,20,16,00,19.50
2014,05,20,16,01,19.50
2014,05,20,16,02,19.60
2014,05,20,16,03,19.60
2014,05,20,16,04,19.50
2014,05,20,16,05,19.60
2014,05,20,16,06,19.60
2014,05,20,16,07,19.60
2014,05,20,16,08,19.70
2014,05,20,16,09,19.70
2014,05,20,16,10,19.80
2014,05,20,16,11,19.80
2014,05,20,16,12,19.80
2014,05,20,16,13,19.80
2014,05,20,16,14,19.80
2014,05,20,16,15,19.80
2014,05,20,16,16,19.80
2014,05,20,16,17,19.80
2014,05,20,16,18,19.80
2014,05,20,16,19,19.90
2014,05,20,16,20,20.00
2014,05,20,16,21,20.00
2014,05,20,16,22,20.10
2014,05,20,16,23,20.10
2014,05,20,16,24,20.10
2014,05,20,16,25,20.00
2014,05,20,16,26,20.00
2014,05,20,16,27,20.00
2014,05,20,16,28,19.90
2014,05,20,16,29,19.90
2014,05,20,16,30,19.80
2014,05,20,16,31,19.80
2014,05,20,16,32,19.70
2014,05,20,16,33,19.70
2014,05,20,16,34,19.70
2014,05,20,16,35,19.70
2014,05,20,16,36,19.70
2014,05,20,16,37,19.70
2014,05,20,16,38,19.80
2014,05,20,16,39,19.80
2014,05,20,16,40,19.80
2014,05,20,16,41,19.80
2014,05,20,16,42,19.80
2014,05,20,16,43,19.70
2014,05,20,16,44,19.70
2014,05,20,16,45,19.70
2014,05,20,16,46,19.80
2014,05,20,16,47,19.80
2014,05,20,16,48,19.70
2014,05,20,16,49,19.70
2014,05,20,16,50,19.70
2014,05,20,16,51,19.70
2014,05,20,16,52,19.70
2014,05,20,16,53,19.70
2014,05,20,16,54,19.70
2014,05,20,16,55,19.60
2014,05,20,16,56,19.60
2014,05,20,16,57,19.60
2014,05,20,16,58,19.60
2014,05,20,16,59,19.60
2014,05,20,17,00,19.50
2014,05,20,17,01,19.50
2014,05,20,17,02,19.50
2014,05,20,17,03,19.50
2014,05,20,17,04,19.50
2014,05,20,17,05,19.50
2014,05,20,17,06,19.50
2014,05,20,17,07,19.50
2014,05,20,17,08,19.60
2014,05,20,17,09,19.60
2014,05,20,17,10,19.50
2014,05,20,17,11,19.50
2014,05,20,17,12,19.50
2014,05,20,17,13,19.50
2014,05,20,17,14,19.50
2014,05,20,17,15,19.50
2014,05,20,17,16,19.50
2014,05,20,17,17,19.40
2014,05,20,17,18,19.40
2014,05,20,17,19,19.40
2014,05,20,17,20,19.40
2014,05,20,17,21,19.40